N4JEX-1 Weather Reports


time (UTC)temp
C
wind
direction
speed
KPH
gust
KPH
rain 1hr
cm
rain 24hr
cm
rain mn
cm
humidity
%
barometer
mb
20260510223234 26 342 1.6 6.4 0.00 0.00 0.00 32 1015.0
20260510222233 26 344 1.6 4.8 0.00 0.00 0.00 32 1015.0
20260510221219 26 268 0.0 4.8 0.00 0.00 0.00 31 1015.0
20260510220216 27 16 3.2 4.8 0.00 0.00 0.00 31 1014.8
20260510215224 27 323 0.0 4.8 0.00 0.00 0.00 33 1014.8
20260510214221 27 247 1.6 3.2 0.00 0.00 0.00 32 1014.8
20260510213217 27 277 0.0 4.8 0.00 0.00 0.00 32 1014.9
20260510212233 27 126 0.0 4.8 0.00 0.00 0.00 34 1014.7
20260510211222 27 336 1.6 6.4 0.00 0.00 0.00 33 1014.9
20260510210226 27 50 4.8 6.4 0.00 0.00 0.00 31 1014.8
20260510205231 27 257 3.2 6.4 0.00 0.00 0.00 33 1014.9
20260510204240 27 355 3.2 6.4 0.00 0.00 0.00 32 1014.9
20260510203215 27 355 3.2 8.0 0.00 0.00 0.00 31 1015.0
20260510202232 28 346 1.6 4.8 0.00 0.00 0.00 30 1014.9
20260510201228 28 83 1.6 4.8 0.00 0.00 0.00 32 1015.0
20260510200225 28 279 1.6 4.8 0.00 0.00 0.00 35 1015.1
20260510195214 27 24 3.2 4.8 0.00 0.00 0.00 31 1015.2
20260510194251 27 9 3.2 6.4 0.00 0.00 0.00 33 1015.3
20260510193226 27 49 3.2 6.4 0.00 0.00 0.00 33 1015.2
20260510192214 27 36 4.8 8.0 0.00 0.00 0.00 32 1015.3
20260510191241 27 86 1.6 4.8 0.00 0.00 0.00 32 1015.2
20260510190228 27 316 1.6 4.8 0.00 0.00 0.00 32 1015.3
20260510185217 27 360 3.2 6.4 0.00 0.00 0.00 34 1015.5
20260510184214 27 82 3.2 6.4 0.00 0.00 0.00 31 1015.5
20260510183230 27 360 0.0 3.2 0.00 0.00 0.00 35 1015.5
20260510182227 26 323 3.2 4.8 0.00 0.00 0.00 33 1015.6
20260510181243 27 67 3.2 8.0 0.00 0.00 0.00 35 1015.6
20260510180238 27 81 1.6 6.4 0.00 0.00 0.00 36 1015.7
20260510175248 26 16 3.2 8.0 0.00 0.00 0.00 34 1015.8
20260510174241 26 360 1.6 6.4 0.00 0.00 0.00 35 1015.9
20260510173236 26 12 1.6 4.8 0.00 0.00 0.00 35 1016.1
20260510172301 27 269 0.0 6.4 0.00 0.00 0.00 37 1016.3
20260510171227 26 59 1.6 4.8 0.00 0.00 0.00 37 1016.4
20260510170221 26 48 3.2 4.8 0.00 0.00 0.00 36 1016.4
20260510165227 27 335 1.6 8.0 0.00 0.00 0.00 36 1016.4
20260510164223 26 105 4.8 8.0 0.00 0.00 0.00 36 1016.4
20260510163240 26 97 3.2 8.0 0.00 0.00 0.00 37 1016.4
20260510162215 26 18 1.6 11.3 0.00 0.00 0.00 41 1016.5
20260510161213 26 85 6.4 11.3 0.00 0.00 0.00 36 1016.6
20260510160245 26 38 1.6 6.4 0.00 0.00 0.00 41 1016.6
20260510155214 26 90 6.4 12.9 0.00 0.00 0.00 40 1016.6
20260510154230 25 60 4.8 12.9 0.00 0.00 0.00 42 1016.6
20260510153226 25 110 3.2 8.0 0.00 0.00 0.00 47 1016.6
20260510152214 25 86 4.8 6.4 0.00 0.00 0.00 46 1016.6
20260510151230 25 92 3.2 9.7 0.00 0.00 0.00 48 1016.6
20260510150246 24 96 6.4 9.7 0.00 0.00 0.00 48 1016.7
20260510145214 23 150 0.0 12.9 0.00 0.00 0.00 57 1016.7
20260510144229 22 308 1.6 6.4 0.00 0.00 0.00 63 1016.7
20260510143226 22 5 1.6 8.0 0.00 0.00 0.00 64 1016.7
20260510142223 22 42 3.2 6.4 0.00 0.00 0.00 66 1016.7
20260510141219 21 17 1.6 4.8 0.00 0.00 0.00 76 1016.6
20260510140235 21 42 1.6 4.8 0.00 0.00 0.00 75 1016.6
20260510135225 20 36 1.6 4.8 0.00 0.00 0.00 78 1016.5
20260510134241 20 5 1.6 6.4 0.00 0.00 0.00 80 1016.6
20260510133216 19 40 1.6 4.8 0.00 0.00 0.00 84 1016.4
20260510132233 18 360 3.2 6.4 0.00 0.00 0.00 87 1016.5
20260510131229 18 48 3.2 6.4 0.00 0.00 0.00 90 1016.5
20260510130216 17 360 3.2 4.8 0.00 0.00 0.00 92 1016.5
20260510125225 17 350 1.6 4.8 0.00 0.00 0.00 92 1016.5
20260510124222 17 42 3.2 6.4 0.00 0.00 0.00 93 1016.4
20260510123218 16 46 3.2 6.4 0.00 0.00 0.00 93 1016.3
20260510122251 16 37 3.2 4.8 0.00 0.00 0.00 93 1016.1
20260510121226 16 28 1.6 3.2 0.00 0.00 0.00 93 1015.8
20260510120243 15 100 0.0 1.6 0.00 0.00 0.00 93 1015.4
20260510115212 14 136 0.0 0.0 0.00 0.00 0.00 93 1015.4
20260510114249 13 136 0.0 0.0 0.00 0.00 0.00 92 1015.3
20260510113244 13 136 0.0 0.0 0.00 0.00 0.00 92 1015.2
20260510112220 13 136 0.0 0.0 0.00 0.00 0.00 92 1015.1
20260510111236 13 136 0.0 0.0 0.00 0.00 0.00 92 1015.1
20260510110232 13 136 0.0 0.0 0.00 0.00 0.00 92 1014.9
20260510105248 13 136 0.0 0.0 0.00 0.00 0.00 92 1014.7
20260510104215 13 136 0.0 0.0 0.00 0.00 0.00 92 1014.5
20260510103301 14 136 0.0 0.0 0.00 0.00 0.00 92 1014.3
20260510102239 14 136 0.0 0.0 0.00 0.00 0.00 92 1014.1
20260510101254 14 136 0.0 0.0 0.00 0.00 0.00 92 1014.0
20260510100221 14 136 0.0 0.0 0.00 0.00 0.00 92 1014.1
20260510095238 14 136 0.0 0.0 0.00 0.00 0.00 92 1013.9
20260510094225 15 136 0.0 0.0 0.00 0.00 0.00 92 1013.7
20260510093222 15 136 0.0 0.0 0.00 0.00 0.00 92 1013.5
20260510092218 15 136 0.0 0.0 0.00 0.00 0.00 92 1013.4
20260510091230 15 136 0.0 0.0 0.00 0.00 0.00 92 1013.4
20260510090218 15 136 0.0 1.6 0.00 0.00 0.00 92 1013.2
20260510085236 15 184 1.6 3.2 0.00 0.00 0.00 92 1013.1
20260510084223 15 186 0.0 1.6 0.00 0.00 0.00 92 1013.1
20260510083219 15 186 0.0 0.0 0.00 0.00 0.00 91 1013.0
20260510082216 15 186 0.0 0.0 0.00 0.00 0.00 91 1012.8
20260510081252 16 186 0.0 1.6 0.00 0.00 0.00 91 1012.8
20260510080228 16 186 0.0 1.6 0.00 0.00 0.00 92 1012.7
20260510075217 16 186 0.0 1.6 0.00 0.00 0.00 91 1012.7
20260510074213 16 90 0.0 0.0 0.00 0.00 0.00 91 1012.6
20260510073230 16 90 0.0 0.0 0.00 0.00 0.00 91 1012.5
20260510072247 16 90 0.0 0.0 0.00 0.00 0.00 91 1012.5
20260510071213 16 90 0.0 0.0 0.00 0.00 0.00 91 1012.5
20260510070241 16 90 0.0 0.0 0.00 0.00 0.00 91 1012.6
20260510065221 16 90 0.0 0.0 0.00 0.00 0.00 91 1012.5
20260510064217 16 90 0.0 0.0 0.00 0.00 0.00 91 1012.4
20260510063213 16 90 0.0 0.0 0.00 0.00 0.00 90 1012.5
20260510062230 16 90 0.0 0.0 0.00 0.00 0.00 90 1012.5
20260510061226 16 90 0.0 0.0 0.00 0.00 0.00 90 1012.3
20260510060214 16 90 0.0 0.0 0.00 0.00 0.00 90 1012.5
20260510055232 16 90 0.0 0.0 0.00 0.00 0.00 90 1012.5
20260510054220 16 90 0.0 0.0 0.00 0.00 0.00 90 1012.5
20260510053216 17 90 0.0 0.0 0.00 0.00 0.00 89 1012.6
20260510052253 17 90 0.0 1.6 0.00 0.00 0.00 89 1012.5
20260510051228 17 178 0.0 0.0 0.00 0.00 0.00 89 1012.7
20260510050224 17 178 0.0 0.0 0.00 0.00 0.00 88 1012.8
20260510045214 17 178 0.0 0.0 0.00 0.00 0.00 88 1012.9
20260510044230 17 178 0.0 0.0 0.00 0.00 0.00 88 1012.7
20260510043226 17 178 0.0 3.2 0.00 0.00 0.00 88 1012.7
20260510042233 17 234 0.0 0.0 0.00 0.00 0.00 88 1012.7
20260510041221 17 234 0.0 1.6 0.00 0.00 0.00 88 1012.9
20260510040217 17 248 0.0 0.0 0.00 0.00 0.00 87 1012.9
20260510035230 17 248 0.0 3.2 0.00 0.00 0.00 87 1012.9
20260510034219 17 226 0.0 1.6 0.00 0.00 0.00 87 1013.0
20260510033215 17 263 0.0 3.2 0.00 0.00 0.00 87 1013.0
20260510032232 17 265 0.0 0.0 0.00 0.00 0.00 86 1012.9
20260510031228 18 265 0.0 0.0 0.00 0.00 0.00 85 1012.8
20260510030245 18 265 0.0 0.0 0.00 0.00 0.00 85 1012.8
20260510025213 18 265 0.0 0.0 0.00 0.00 0.00 84 1012.9
20260510024229 18 265 0.0 0.0 0.00 0.00 0.00 84 1012.8
20260510023226 18 265 0.0 0.0 0.00 0.00 0.00 84 1012.8
20260510022213 18 265 0.0 0.0 0.00 0.00 0.00 83 1012.6
20260510021227 18 265 0.0 0.0 0.00 0.00 0.00 83 1012.6
20260510020223 18 265 0.0 0.0 0.00 0.00 0.00 83 1012.5
20260510015232 18 263 0.0 0.0 0.00 0.00 0.00 83 1012.4
20260510014248 18 234 0.0 0.0 0.00 0.00 0.00 82 1012.3
20260510013244 19 280 0.0 0.0 0.00 0.00 0.00 81 1012.2
20260510012219 19 280 0.0 0.0 0.00 0.00 0.00 80 1012.1
20260510011215 19 280 0.0 0.0 0.00 0.00 0.00 79 1011.8
20260510010232 20 280 0.0 0.0 0.00 0.00 0.00 79 1011.8
20260510005223 20 280 0.0 0.0 0.00 0.00 0.00 79 1011.6
20260510004219 20 280 0.0 0.0 0.00 0.00 0.00 78 1011.4
20260510003235 20 244 0.0 0.0 0.00 0.00 0.00 78 1011.2
20260510002223 20 244 0.0 0.0 0.00 0.00 0.00 77 1011.0
20260510001219 21 244 0.0 0.0 0.00 0.00 0.00 76 1011.0
20260510000218 21 244 0.0 0.0 0.00 0.00 0.00 75 1010.9
20260509235227 21 273 0.0 0.0 0.00 0.00 0.00 75 1010.8
20260509234224 21 271 0.0 0.0 0.00 0.00 0.00 74 1010.8
20260509233240 21 272 0.0 4.8 0.00 0.00 0.00 74 1010.7
20260509232237 21 280 0.0 4.8 0.00 0.00 0.00 74 1010.7
20260509231224 21 276 0.0 4.8 0.00 0.00 0.00 74 1010.7
20260509230237 21 355 1.6 4.8 0.00 0.00 0.00 74 1010.6
20260509225235 21 191 1.6 4.8 0.00 0.00 0.00 74 1010.6
20260509224222 21 266 1.6 4.8 0.00 0.00 0.00 73 1010.2